Wind_Speed
5 5 5 3 3 2 1 1 3 4 5 5 6 6 6 6 6 7 7 7 6 7 6 6 8 9 9 10 10 10 10 10 11 11 11 11 11 11 11 11 10 11 11
5 5 4 4 4 3 2 2 2 3 4 5 6 6 6 7 7 7 7 7 7 7 7 6 7 8 9 9 9 9 10 10 11 11 11 11 11 11 11 11 11 12 12
6 6 5 4 4 4 3 3 3 3 4 4 5 5 6 7 7 7 7 8 8 8 8 8 8 8 9 9 9 9 10 10 11 11 11 11 11 12 13 12 12 12 13
6 6 6 5 5 5 5 4 4 4 4 4 5 5 6 8 8 8 8 8 9 9 9 8 8 10 10 11 11 11 11 11 12 12 12 12 12 12 13 13 13 13 14
6 6 7 7 6 6 6 5 5 5 5 6 6 7 8 8 9 9 10 10 10 10 10 10 10 11 12 12 13 13 13 13 13 13 13 14 13 14 14 14 14 14 15
7 6 7 7 7 7 6 6 6 6 6 7 7 8 8 9 9 10 10 10 10 11 11 12 12 12 13 13 14 15 15 15 14 14 15 15 15 15 15 16 16 16 16
7 7 7 8 8 8 8 8 7 7 8 8 8 9 9 10 10 10 10 11 11 11 12 13 13 13 13 14 15 16 16 16 16 17 16 16 16 16 17 18 17 17 17
7 8 8 9 9 9 9 9 9 9 9 9 9 10 10 11 12 12 12 12 13 13 13 13 14 14 14 15 15 15 16 17 17 17 18 18 18 18 18 18 18 18 18
8 8 9 10 10 11 10 10 10 10 10 10 10 11 11 12 13 14 14 14 14 14 14 14 15 15 15 16 17 17 17 18 19 19 19 19 19 20 19 19 19 19 20
9 9 10 11 12 11 11 11 11 11 12 12 12 12 12 12 13 14 15 17 17 16 16 16 16 17 17 17 18 18 19 19 20 20 20 20 21 21 20 20 21 22 22
11 11 12 12 12 12 13 13 13 13 13 13 13 14 14 14 15 15 16 17 18 18 18 18 18 18 18 19 20 20 19 20 21 21 20 21 22 22 22 22 23 23 23
12 13 13 14 14 14 14 14 14 14 14 14 15 15 16 16 16 16 16 17 18 19 19 20 19 19 19 20 20 20 20 20 21 21 21 21 23 23 23 23 23 24 25
13 14 15 15 15 15 15 15 15 15 16 16 16 17 17 17 18 17 17 18 19 19 19 19 20 20 21 21 21 21 21 22 22 22 22 23 24 24 24 25 25 25 25
13 14 15 15 15 15 15 15 16 16 17 17 18 18 18 19 19 19 18 18 18 18 19 19 20 21 21 21 22 22 23 23 24 24 24 24 25 25 25 25 26 27 27
14 15 15 15 15 15 15 16 17 17 18 18 18 19 19 19 19 19 19 19 20 19 19 20 21 21 22 22 22 23 24 24 24 24 25 25 26 26 26 26 26 26 27
16 16 16 17 16 16 17 17 17 18 18 18 18 19 19 19 19 19 19 20 21 21 21 21 22 22 23 23 23 24 24 25 25 25 25 25 26 27 27 27 27 28 28
17 17 17 18 18 18 17 17 17 18 18 19 19 19 19 20 20 20 21 21 21 22 22 22 23 23 24 23 24 25 25 26 26 26 26 26 26 26 27 27 28 28 28
18 17 18 18 18 18 18 18 19 19 19 19 19 19 19 20 20 21 22 22 22 23 23 22 23 24 24 24 25 26 27 27 27 26 27 27 27 27 27 27 27 28 29
18 18 18 18 19 19 19 19 20 20 20 21 21 20 20 21 22 22 22 23 23 24 24 23 24 24 25 25 26 26 26 26 26 26 27 27 27 26 26 27 27 28 28
19 19 20 20 20 20 20 20 20 21 21 22 22 22 22 22 23 23 23 23 24 24 24 24 25 25 25 26 26 25 24 25 25 26 26 26 26 26 26 27 27 28 29
21 21 21 22 22 22 22 21 21 21 21 22 22 22 22 22 23 23 23 24 24 25 25 25 25 25 26 26 26 26 25 26 25 26 26 27 26 27 27 28 28 29 30
23 23 23 23 23 23 23 22 23 23 23 23 23 23 23 23 24 24 25 25 25 25 25 25 25 26 27 26 26 26 27 26 25 26 26 26 27 28 29 29 28 28 29
23 23 24 24 24 24 24 24 24 23 23 24 24 24 24 24 24 25 25 26 26 26 25 25 25 26 26 26 26 26 26 26 26 26 26 26 27 28 28 28 28 29 30
23 23 24 25 25 25 25 24 24 24 24 24 25 25 25 24 25 25 25 25 26 26 26 26 26 27 26 26 26 27 27 26 26 26 27 26 27 27 27 27 27 29 30
23 23 24 25 25 24 24 24 24 24 24 24 25 26 26 25 25 25 24 25 25 26 27 27 27 26 26 26 26 27 27 26 26 26 27 27 26 26 27 26 27 28 29
23 23 24 24 24 24 23 23 24 24 24 25 25 25 25 24 24 24 24 23 24 25 26 27 26 26 25 25 25 25 25 26 26 26 27 27 26 26 25 26 26 28 29
Wind_Direction
29 29 30 31 35 31 33 237 233 229 229 237 242 244 247 242 241 242 242 242 243 239 242 242 234 232 229 229 232 234 235 238 240 240 241 242 240 242 243 244 247 248 244
25 24 29 31 24 10 356 336 280 253 242 245 249 249 247 250 246 247 246 241 239 243 241 239 239 240 240 239 237 239 240 241 241 243 245 244 243 245 247 249 247 247 247
4 4 6 5 359 354 342 319 298 281 260 258 256 256 253 254 255 247 245 245 242 246 249 250 243 243 245 248 248 244 242 243 243 243 245 244 243 245 249 249 246 246 247
354 351 344 340 338 335 327 312 300 289 277 268 264 261 260 260 258 256 253 252 248 248 250 250 248 247 247 249 250 249 245 244 245 245 245 246 245 245 247 248 247 249 248
345 345 339 333 329 322 318 311 306 296 289 282 275 271 266 262 259 256 257 255 254 253 252 252 253 254 254 251 250 249 249 247 248 249 250 247 246 246 248 250 250 250 250
341 338 336 334 325 313 304 299 298 295 292 286 282 278 269 262 262 260 258 260 262 262 260 258 257 258 257 256 255 254 252 250 249 250 252 252 251 250 250 249 250 251 252
344 342 338 333 327 316 308 308 298 292 292 290 285 282 277 270 266 266 264 264 266 268 265 262 261 262 262 259 258 256 254 254 253 255 255 254 254 252 252 251 251 251 252
328 330 330 330 326 319 313 311 302 299 292 288 286 284 280 274 269 271 268 268 267 268 269 266 264 264 265 264 261 259 258 258 256 257 258 257 257 255 254 251 253 250 250
325 324 325 321 319 318 313 311 305 301 298 296 295 293 285 278 273 274 273 271 269 267 267 267 265 264 266 265 264 262 261 260 258 258 259 258 258 256 255 252 250 250 250
319 319 318 315 312 309 307 306 304 301 297 295 296 296 292 286 280 273 271 270 270 269 267 266 265 264 263 263 262 263 262 261 261 261 261 259 255 256 257 254 252 251 251
311 312 311 311 308 304 301 299 298 297 297 294 292 292 291 287 285 279 274 272 271 269 268 268 267 266 264 262 261 262 261 262 262 262 262 260 256 257 258 256 255 254 253
306 307 309 310 309 303 300 299 298 295 294 293 292 291 290 288 287 285 279 277 275 272 268 268 268 268 267 267 265 263 263 264 264 264 263 262 260 259 259 257 256 255 253
310 310 309 311 311 307 303 299 297 295 293 292 292 290 288 288 286 286 283 279 277 276 273 272 271 270 269 269 267 265 265 265 265 264 264 263 261 261 261 259 257 256 254
310 311 311 311 310 309 305 301 297 294 293 292 291 289 287 286 286 285 283 283 281 277 274 274 275 273 271 269 268 267 267 266 265 263 263 263 262 262 262 259 257 255 253
307 307 308 308 307 306 302 301 298 294 292 291 289 288 287 286 286 286 284 283 282 279 275 273 273 273 272 269 267 266 266 266 266 265 264 263 262 261 261 259 257 254 253
303 303 304 306 306 304 301 299 297 297 294 292 290 288 287 285 284 285 286 285 283 280 277 275 274 274 273 271 269 267 265 264 263 264 264 264 263 262 262 260 258 255 253
301 301 302 303 304 303 300 298 298 295 294 293 292 288 286 285 284 284 283 283 283 281 279 276 275 275 273 271 270 268 266 264 262 261 261 263 264 263 263 263 261 257 254
302 302 303 303 303 302 301 299 298 297 296 295 292 289 287 286 285 284 283 283 282 281 278 277 277 276 274 273 270 270 269 267 263 260 262 262 262 262 262 262 260 258 256
302 303 303 302 303 302 302 301 299 297 295 294 292 290 289 288 286 285 284 282 281 280 279 278 278 276 275 275 273 271 268 266 264 262 261 262 262 262 262 262 260 259 258
299 300 301 301 302 302 301 301 300 297 295 294 293 292 290 289 288 286 285 283 282 279 278 279 278 277 277 276 273 269 267 266 267 266 264 263 262 262 261 262 261 259 258
298 297 298 300 301 301 300 300 299 298 296 295 295 293 291 289 288 287 286 284 283 282 280 280 279 278 279 276 271 269 268 268 268 268 267 266 265 262 261 262 261 259 256
298 298 298 299 300 300 299 298 298 296 296 295 293 293 291 289 287 286 286 285 284 283 282 282 281 280 280 275 270 268 270 269 268 268 268 268 267 264 261 261 260 258 258
299 299 299 299 299 299 298 298 297 296 295 294 293 293 291 289 287 287 286 285 284 284 284 283 282 282 280 275 271 270 270 269 268 267 267 268 269 266 261 259 257 257 256
302 302 301 300 298 297 296 298 298 297 296 295 295 296 294 292 289 289 288 286 285 284 284 283 283 281 279 276 273 271 271 267 267 266 267 268 269 266 263 261 259 257 256
302 302 303 303 301 301 299 299 298 297 297 298 297 297 295 293 292 292 291 288 286 285 284 283 283 282 280 277 275 273 270 267 267 268 269 269 267 265 261 260 259 259 258
302 304 304 305 304 304 302 301 300 298 297 297 297 296 295 294 293 292 291 290 290 289 286 284 284 283 281 280 278 275 271 268 268 267 267 268 267 265 262 261 261 260 258
Height
5877 5876 5875 5874 5874 5873 5872 5872 5873 5873 5873 5874 5874 5874 5875 5875 5875 5875 5875 5875 5875 5875 5875 5875 5875 5876 5876 5877 5877 5877 5878 5879 5879 5880 5880 5880 5881 5881 5882 5882 5883 5883 5883
5878 5877 5876 5875 5874 5873 5873 5872 5872 5872 5872 5873 5873 5873 5873 5873 5873 5874 5874 5873 5874 5874 5873 5873 5873 5873 5874 5874 5874 5875 5875 5876 5876 5877 5877 5878 5878 5879 5879 5880 5880 5880 5881
5877 5877 5876 5874 5874 5873 5872 5872 5872 5872 5871 5871 5871 5871 5871 5871 5871 5872 5872 5871 5871 5872 5872 5871 5871 5871 5871 5872 5872 5872 5873 5873 5873 5874 5874 5875 5876 5876 5877 5877 5877 5877 5878
5877 5876 5875 5874 5873 5872 5872 5871 5871 5870 5870 5870 5870 5869 5869 5869 5870 5870 5870 5870 5870 5869 5869 5869 5869 5869 5869 5869 5869 5870 5870 5870 5870 5871 5872 5872 5872 5873 5874 5874 5874 5875 5875
5876 5875 5874 5873 5872 5871 5870 5870 5869 5869 5868 5868 5868 5868 5867 5867 5867 5867 5867 5867 5867 5867 5867 5867 5866 5866 5866 5866 5866 5866 5867 5867 5867 5868 5868 5869 5869 5870 5870 5871 5871 5872 5872
5874 5873 5872 5871 5870 5869 5869 5868 5867 5867 5866 5866 5866 5866 5865 5865 5864 5864 5864 5864 5864 5863 5863 5863 5863 5863 5863 5863 5863 5863 5863 5863 5864 5864 5864 5865 5865 5866 5866 5867 5867 5868 5868
5873 5872 5871 5870 5868 5867 5867 5866 5865 5864 5864 5863 5863 5862 5862 5862 5862 5861 5861 5861 5861 5860 5859 5859 5859 5859 5859 5859 5859 5859 5859 5859 5860 5860 5860 5860 5861 5861 5862 5862 5863 5864 5864
5872 5871 5869 5868 5867 5865 5864 5863 5862 5861 5861 5860 5860 5859 5859 5859 5858 5858 5858 5857 5857 5856 5856 5855 5855 5855 5855 5855 5855 5854 5855 5855 5855 5855 5856 5856 5856 5857 5857 5857 5858 5859 5859
5870 5868 5867 5866 5864 5863 5861 5860 5859 5858 5858 5857 5856 5856 5855 5855 5854 5854 5853 5853 5852 5852 5852 5851 5851 5851 5851 5850 5850 5850 5850 5850 5850 5851 5851 5851 5851 5852 5852 5853 5853 5854 5854
5868 5866 5864 5863 5861 5860 5858 5857 5856 5855 5854 5853 5852 5852 5851 5850 5850 5850 5849 5848 5848 5847 5847 5846 5846 5846 5845 5845 5845 5845 5845 5845 5845 5845 5845 5845 5845 5846 5846 5847 5847 5848 5849
5865 5863 5861 5859 5858 5856 5855 5853 5852 5851 5850 5849 5848 5847 5846 5845 5845 5845 5844 5844 5843 5842 5842 5841 5840 5840 5839 5839 5839 5840 5840 5840 5839 5839 5839 5839 5839 5840 5840 5840 5841 5841 5842
5862 5860 5858 5856 5854 5852 5851 5850 5848 5847 5845 5844 5843 5842 5841 5840 5840 5839 5839 5838 5837 5836 5836 5835 5834 5834 5833 5833 5833 5833 5833 5833 5833 5833 5833 5833 5833 5832 5833 5833 5834 5834 5835
5858 5857 5855 5852 5850 5848 5847 5845 5844 5843 5841 5839 5838 5837 5836 5835 5834 5833 5833 5832 5831 5830 5829 5829 5828 5828 5827 5827 5827 5827 5827 5827 5827 5826 5826 5826 5825 5825 5825 5825 5826 5827 5828
5855 5853 5851 5849 5846 5844 5842 5841 5839 5838 5836 5834 5833 5831 5830 5829 5828 5827 5826 5825 5825 5824 5823 5822 5822 5821 5821 5820 5820 5820 5820 5820 5819 5819 5818 5818 5818 5818 5818 5818 5818 5819 5820
5851 5849 5847 5845 5842 5840 5838 5836 5834 5832 5831 5829 5827 5826 5824 5823 5822 5821 5820 5819 5818 5817 5816 5816 5815 5814 5813 5813 5812 5813 5812 5812 5811 5811 5811 5810 5810 5810 5810 5810 5810 5811 5812
5847 5845 5843 5840 5838 5835 5833 5831 5829 5827 5825 5823 5822 5820 5818 5817 5816 5815 5813 5812 5811 5810 5809 5808 5808 5807 5806 5806 5805 5804 5804 5804 5803 5803 5802 5802 5802 5802 5802 5802 5802 5803 5804
5842 5840 5838 5835 5833 5830 5828 5826 5824 5822 5819 5818 5816 5814 5812 5811 5809 5808 5807 5805 5804 5803 5802 5801 5800 5800 5799 5798 5797 5796 5796 5795 5795 5794 5794 5794 5794 5794 5793 5794 5794 5794 5795
5837 5835 5833 5830 5828 5825 5823 5820 5818 5816 5814 5811 5809 5807 5806 5804 5803 5801 5800 5799 5797 5796 5795 5794 5793 5792 5791 5790 5789 5788 5787 5787 5786 5786 5786 5786 5785 5785 5785 5785 5786 5786 5787
5832 5830 5828 5825 5823 5820 5817 5815 5813 5810 5808 5805 5803 5801 5799 5797 5796 5794 5793 5792 5790 5789 5787 5786 5785 5783 5782 5781 5780 5780 5779 5779 5778 5777 5777 5777 5777 5777 5777 5777 5777 5778 5778
5826 5824 5822 5819 5817 5814 5811 5809 5806 5804 5801 5799 5797 5794 5792 5790 5788 5787 5785 5784 5782 5781 5780 5778 5777 5775 5774 5773 5772 5771 5771 5770 5770 5769 5769 5768 5768 5768 5768 5769 5769 5769 5770
5821 5818 5816 5814 5811 5808 5806 5803 5800 5798 5795 5793 5790 5788 5785 5783 5781 5779 5778 5776 5774 5773 5771 5770 5768 5766 5765 5764 5763 5763 5762 5762 5762 5761 5761 5761 5761 5761 5760 5760 5760 5760 5761
5814 5812 5810 5807 5805 5802 5799 5796 5794 5791 5789 5786 5784 5781 5778 5776 5774 5772 5770 5768 5766 5764 5763 5761 5760 5758 5757 5756 5755 5754 5754 5754 5754 5754 5753 5752 5752 5752 5751 5751 5751 5751 5752
5808 5805 5803 5800 5798 5795 5792 5790 5787 5784 5782 5779 5776 5773 5771 5768 5766 5764 5762 5760 5758 5756 5755 5753 5752 5750 5749 5747 5746 5746 5745 5745 5745 5745 5744 5744 5743 5743 5743 5742 5742 5743 5743
5801 5799 5796 5793 5790 5788 5785 5782 5780 5777 5774 5771 5768 5765 5763 5760 5758 5756 5754 5752 5750 5748 5746 5745 5744 5742 5740 5739 5738 5738 5737 5737 5737 5736 5736 5737 5735 5734 5734 5733 5734 5734 5735
5795 5792 5789 5786 5784 5781 5778 5775 5772 5769 5766 5764 5761 5758 5755 5753 5750 5748 5746 5744 5742 5740 5738 5736 5735 5734 5732 5731 5730 5729 5729 5728 5729 5728 5727 5727 5727 5725 5725 5725 5726 5726 5727
5788 5785 5782 5779 5777 5774 5771 5768 5765 5762 5759 5757 5754 5751 5747 5745 5742 5740 5738 5736 5735 5732 5730 5728 5727 5725 5724 5723 5721 5720 5720 5719 5720 5720 5719 5718 5718 5718 5718 5718 5718 5718 5718